Wind_Speed
17 17 18 18 18 18 18 18 18 18 18 18 18 18 18 19 20 21 22 21 21 21 21 20 19 19 19 18 17 15 14 14 13 11 10 9 8 7 7 6 6 7 7 8
17 17 18 18 18 18 19 19 18 18 18 18 19 19 19 20 20 21 22 23 22 21 21 21 20 19 19 19 18 17 16 16 15 14 13 13 11 10 9 9 8 8 7 8
17 17 17 18 18 18 18 18 18 19 19 18 18 19 19 20 20 21 22 23 23 23 23 22 22 21 21 20 19 18 18 17 16 16 15 15 14 13 12 12 11 10 9 9
17 17 17 17 17 18 18 18 18 18 18 18 18 19 19 20 21 21 21 22 22 22 22 21 21 21 21 21 21 20 19 18 18 17 17 16 15 15 14 14 14 13 12 11
17 17 17 17 17 17 17 17 17 17 18 18 18 18 18 19 20 20 20 21 21 21 21 21 21 21 21 21 22 22 21 20 20 19 19 19 18 17 17 17 16 15 14 13
16 17 17 17 16 16 16 16 16 16 16 16 16 17 17 18 18 19 19 19 20 20 20 21 21 21 21 22 22 22 22 22 22 21 21 21 21 20 20 19 19 18 17 15
14 15 16 16 15 15 15 15 14 15 15 15 15 15 16 16 17 17 17 18 18 19 19 20 20 20 20 21 21 22 22 22 22 22 22 22 22 21 21 21 21 20 20 18
12 13 14 15 14 13 13 13 13 13 13 13 13 13 14 14 15 16 16 16 17 17 17 18 18 19 19 19 20 20 21 21 21 22 22 22 22 22 22 22 22 22 21 20
10 11 11 13 13 12 11 12 12 11 11 11 11 12 12 13 14 14 15 15 15 15 16 16 17 17 18 18 19 20 20 21 21 22 22 22 23 23 23 23 23 22 22 22
8 9 9 10 11 11 10 10 10 10 10 10 10 10 10 11 12 12 13 14 14 14 14 15 15 16 17 18 18 19 20 21 21 21 21 22 22 23 23 23 23 23 22 22
7 7 7 7 8 9 9 8 8 8 9 8 8 8 8 9 10 10 11 12 13 13 13 13 14 15 15 16 17 18 19 20 21 21 21 21 22 23 23 23 24 23 23 22
7 7 6 6 6 7 7 7 6 6 6 7 7 7 7 7 8 8 9 10 11 11 12 13 13 13 14 15 16 17 18 19 20 21 21 21 21 22 22 23 23 23 23 23
8 8 7 6 5 5 5 6 5 5 4 5 5 6 6 6 7 7 8 9 9 9 10 11 12 12 13 14 15 16 18 19 20 20 20 21 21 21 22 22 22 23 23 23
10 10 9 8 7 6 6 5 5 4 4 3 4 4 5 5 6 6 7 7 8 8 9 10 10 11 12 13 14 15 17 18 19 20 20 21 21 21 21 21 21 22 22 23
12 12 11 10 10 9 8 7 5 5 4 4 3 4 4 5 5 6 6 7 7 8 8 9 9 10 10 11 12 13 14 16 17 19 19 20 20 20 20 20 20 21 21 22
16 14 13 13 12 12 11 10 9 8 7 6 5 5 4 5 5 6 6 7 7 8 8 9 9 9 9 9 10 11 12 13 15 16 18 18 19 19 19 19 19 19 20 20
20 18 17 16 15 14 14 13 13 11 10 9 8 7 7 6 6 6 7 7 7 7 8 9 9 9 9 9 9 9 10 11 12 13 15 16 17 17 17 18 18 18 18 18
23 22 20 19 18 17 17 16 15 14 13 12 11 11 10 9 8 8 8 8 8 8 8 9 9 9 10 9 9 9 9 10 10 11 12 13 14 15 15 15 15 15 15 15
27 26 24 23 22 21 20 19 18 17 17 16 15 14 13 12 12 11 10 10 10 9 9 9 9 10 10 10 10 10 10 10 10 10 10 11 11 12 13 13 13 13 13 13
30 29 28 27 26 25 24 23 22 21 20 19 18 18 17 16 15 15 14 13 13 13 12 12 11 11 11 11 11 11 11 11 10 10 10 10 10 10 10 10 11 11 11 10
35 33 32 31 30 29 28 27 26 25 24 23 22 21 20 20 19 19 18 17 16 16 15 15 14 14 13 13 13 13 12 12 12 11 11 11 10 10 10 9 9 9 9 9
39 38 37 35 34 33 32 31 30 29 28 27 26 25 25 24 23 22 22 21 20 20 19 19 18 17 16 16 16 15 15 15 14 14 13 13 12 12 11 11 10 9 9 8
44 43 41 40 39 38 37 36 35 34 33 32 31 30 29 29 28 27 26 25 24 24 23 23 22 21 20 20 19 18 18 17 17 16 16 16 15 14 14 13 13 12 11 10
49 48 47 46 45 43 42 41 40 39 38 37 36 35 34 33 32 32 31 29 28 28 27 27 26 25 24 24 23 22 21 20 20 19 19 18 18 17 17 16 15 15 15 14
53 52 52 51 50 49 48 47 46 44 43 42 41 40 39 38 37 36 35 34 33 32 32 31 30 29 28 28 27 26 25 24 24 23 22 21 21 21 20 20 19 19 18 17
57 56 56 56 55 54 53 53 52 50 49 48 47 46 45 44 42 41 40 39 38 37 37 36 35 34 33 32 31 30 30 29 28 28 27 26 25 24 24 24 23 22 22 21
61 60 60 60 60 59 59 58 57 56 55 54 53 52 50 49 48 47 46 45 44 43 42 41 40 39 38 37 36 35 34 33 32 32 31 30 29 29 28 27 27 26 26 25
Wind_Direction
28 25 23 23 25 25 27 29 30 33 36 37 41 44 47 48 49 51 52 53 54 56 57 58 58 58 60 60 62 61 60 59 57 55 52 43 34 22 8 351 333 318 305 297
30 27 25 25 27 28 30 32 35 39 43 45 47 51 52 52 53 53 53 55 57 57 56 57 58 57 57 58 59 58 56 55 52 48 44 39 33 25 17 6 352 336 318 310
30 27 26 28 28 29 32 37 41 44 46 48 51 54 54 54 56 55 55 56 56 56 57 57 57 56 57 58 57 55 53 51 48 46 42 38 33 29 23 15 5 354 340 327
30 28 28 30 32 33 36 41 45 48 49 51 54 56 57 57 56 57 57 56 55 56 56 56 56 56 57 56 55 53 51 48 46 44 42 39 36 33 28 23 16 9 358 346
29 29 30 31 35 36 39 44 47 50 51 53 56 58 59 57 56 56 57 57 57 57 57 57 56 57 57 55 53 51 50 48 47 47 44 42 39 35 31 26 21 15 6 357
29 29 30 33 37 39 42 46 48 51 54 55 57 59 58 58 57 56 57 57 56 56 57 57 56 55 55 53 52 50 49 48 47 46 44 40 38 34 30 26 23 19 14 7
24 28 30 32 37 40 44 45 49 53 55 56 57 57 58 58 56 56 57 57 57 57 56 55 54 53 52 50 49 48 47 46 45 43 40 37 34 32 28 26 24 22 19 16
18 23 26 29 34 38 41 44 48 51 55 57 56 56 56 56 55 55 55 56 56 55 54 52 51 48 47 46 45 44 43 42 40 38 35 33 32 30 28 26 25 24 23 21
10 16 20 25 30 33 37 41 44 48 52 56 56 56 55 55 54 53 52 51 51 50 49 48 46 44 43 42 41 39 38 37 36 34 32 31 30 29 28 27 26 26 26 27
353 2 9 17 24 28 32 38 42 47 50 53 56 56 54 52 50 48 47 45 45 44 43 42 41 40 39 38 37 36 34 33 31 30 29 29 29 29 29 29 29 29 31 32
329 344 355 4 13 22 28 32 37 44 48 49 52 52 50 46 43 41 40 40 39 38 36 35 35 34 34 33 32 31 30 29 28 27 28 29 30 31 32 33 33 34 35 36
301 314 329 342 353 6 17 25 29 35 41 42 43 42 40 37 32 31 31 31 31 30 29 29 29 28 29 29 29 28 27 26 27 27 28 29 30 32 33 34 36 37 38 40
283 287 297 310 322 337 355 8 13 17 23 28 32 32 30 28 25 23 22 22 20 19 19 21 23 25 26 27 27 27 27 27 28 28 28 28 30 32 33 35 37 40 41 43
273 275 278 285 291 300 312 329 346 353 356 1 5 9 12 12 10 9 9 9 8 7 8 10 13 16 19 22 24 25 26 28 29 30 30 30 31 32 34 37 39 42 45 47
268 268 270 273 276 279 283 290 298 310 320 325 330 338 348 355 357 357 357 355 355 354 355 357 360 3 6 11 16 19 21 24 26 28 29 30 31 32 34 37 40 43 46 48
265 265 265 266 269 271 272 274 276 280 286 291 298 305 315 326 334 340 343 345 345 344 342 344 347 348 350 354 360 6 12 16 19 22 25 27 29 31 33 36 39 42 45 48
262 262 262 263 263 264 266 268 269 270 273 276 280 285 291 298 306 317 325 329 332 335 337 338 337 338 339 341 345 350 356 2 8 13 18 22 24 27 30 33 37 40 43 46
260 260 260 260 259 260 261 263 265 266 267 268 271 274 278 283 288 294 304 312 318 322 326 330 331 329 329 330 331 334 339 345 352 359 6 12 17 21 24 27 31 35 39 43
258 257 257 257 257 257 258 260 262 263 264 265 266 268 271 274 278 282 286 292 297 303 310 318 324 324 320 318 319 321 324 328 333 340 347 355 2 9 14 18 21 25 30 35
256 256 255 255 255 256 257 258 259 260 261 263 264 265 267 269 271 274 278 282 286 289 292 297 303 311 315 315 313 311 312 316 320 322 326 332 339 347 355 3 9 13 17 22
254 254 254 255 255 255 255 256 257 258 260 261 262 263 265 267 268 270 272 275 278 281 283 286 289 293 297 301 304 305 304 304 307 310 312 314 317 321 327 334 342 350 356 2
253 253 254 254 254 254 255 255 256 257 258 260 261 263 264 266 268 269 270 272 274 275 277 279 281 284 287 289 291 293 295 296 297 298 299 300 301 302 304 308 313 319 324 331
251 252 253 254 254 254 255 255 255 256 257 259 261 262 264 266 267 269 271 272 273 274 275 275 276 278 280 282 283 284 285 287 290 291 291 291 291 292 293 294 295 297 300 303
250 251 252 253 254 255 255 256 256 257 258 259 260 262 263 265 267 268 270 272 273 274 275 275 275 275 276 277 278 279 280 281 283 284 285 286 285 284 284 286 287 287 287 287
248 250 251 253 254 255 256 257 258 258 259 260 261 262 263 265 266 268 269 271 272 273 274 274 274 275 275 275 275 276 276 276 277 278 279 281 281 281 281 280 280 281 281 281
246 248 250 251 253 254 256 257 258 259 260 261 262 263 264 265 266 267 269 270 271 272 272 272 273 273 274 274 274 275 275 275 275 275 275 275 276 277 278 278 278 278 277 277
245 246 248 250 252 253 255 256 258 259 260 261 262 263 264 265 266 266 267 268 269 270 270 271 272 272 272 273 273 273 273 273 273 274 274 274 273 273 274 274 274 275 275 275
Height
5867 5864 5860 5857 5853 5849 5845 5841 5837 5834 5830 5827 5823 5820 5817 5814 5811 5807 5804 5801 5798 5796 5793 5791 5789 5788 5786 5785 5784 5783 5782 5781 5780 5779 5779 5778 5777 5777 5776 5775 5774 5773 5772 5772
5869 5866 5862 5859 5855 5851 5847 5843 5840 5836 5833 5830 5827 5824 5821 5818 5815 5812 5809 5806 5803 5801 5799 5797 5795 5793 5791 5789 5788 5787 5786 5784 5783 5782 5780 5779 5778 5777 5775 5774 5773 5771 5770 5769
5871 5868 5865 5862 5858 5854 5850 5846 5843 5840 5837 5833 5831 5828 5825 5822 5820 5817 5814 5812 5809 5807 5804 5802 5800 5798 5796 5794 5793 5791 5789 5787 5786 5784 5783 5781 5779 5777 5775 5774 5772 5770 5768 5767
5873 5871 5867 5866 5860 5857 5853 5850 5846 5843 5840 5837 5835 5832 5830 5827 5825 5822 5820 5817 5815 5812 5810 5808 5806 5804 5801 5799 5797 5795 5793 5791 5789 5787 5785 5783 5781 5779 5777 5774 5772 5769 5767 5765
5876 5873 5870 5867 5863 5859 5856 5853 5850 5847 5844 5841 5839 5837 5834 5832 5830 5827 5825 5823 5820 5818 5816 5813 5811 5809 5807 5804 5802 5799 5797 5794 5792 5790 5788 5785 5783 5780 5778 5775 5772 5769 5766 5763
5878 5875 5872 5870 5866 5862 5860 5857 5854 5851 5848 5845 5843 5841 5840 5837 5834 5832 5830 5828 5825 5823 5821 5819 5816 5814 5812 5809 5807 5804 5801 5798 5796 5794 5791 5788 5785 5782 5779 5776 5772 5769 5765 5762
5880 5877 5874 5872 5868 5865 5864 5862 5857 5854 5852 5850 5847 5846 5844 5841 5839 5836 5834 5832 5830 5828 5826 5824 5822 5819 5817 5814 5811 5809 5806 5803 5800 5797 5795 5791 5788 5785 5781 5777 5773 5769 5765 5761
5881 5879 5878 5873 5870 5868 5866 5862 5860 5858 5855 5853 5851 5849 5847 5845 5843 5841 5839 5837 5835 5833 5830 5828 5826 5824 5821 5819 5816 5813 5810 5807 5804 5801 5798 5795 5791 5787 5783 5779 5775 5771 5766 5762
5883 5882 5878 5875 5872 5870 5867 5865 5862 5860 5858 5856 5854 5852 5850 5848 5846 5845 5843 5841 5838 5836 5834 5832 5830 5828 5825 5823 5820 5817 5814 5811 5808 5805 5801 5798 5794 5790 5785 5781 5777 5772 5768 5763
5882 5880 5878 5876 5874 5871 5869 5866 5864 5862 5860 5859 5857 5855 5853 5852 5850 5848 5846 5844 5842 5840 5838 5836 5833 5831 5829 5826 5823 5821 5818 5814 5811 5808 5804 5800 5797 5792 5788 5784 5779 5775 5771 5766
5881 5880 5878 5876 5874 5872 5870 5868 5866 5864 5862 5860 5859 5857 5856 5854 5852 5850 5849 5847 5845 5842 5840 5838 5836 5834 5832 5829 5827 5824 5821 5817 5814 5811 5807 5803 5800 5795 5791 5787 5783 5779 5775 5770
5880 5879 5878 5877 5875 5873 5871 5869 5867 5865 5863 5862 5860 5859 5857 5855 5854 5852 5850 5849 5847 5845 5843 5841 5838 5836 5834 5832 5829 5826 5824 5820 5817 5814 5810 5806 5803 5799 5795 5791 5787 5783 5779 5775
5878 5877 5876 5875 5874 5872 5871 5869 5867 5866 5864 5863 5861 5859 5858 5856 5855 5853 5852 5850 5848 5846 5844 5842 5840 5838 5836 5834 5831 5829 5826 5823 5820 5816 5813 5810 5806 5802 5799 5795 5791 5788 5784 5780
5875 5874 5873 5873 5872 5871 5870 5869 5867 5866 5864 5863 5861 5860 5858 5857 5855 5854 5852 5851 5849 5847 5845 5844 5842 5840 5838 5836 5833 5831 5829 5826 5823 5820 5816 5813 5810 5806 5803 5799 5796 5793 5789 5785
5871 5871 5870 5870 5869 5869 5868 5867 5866 5865 5863 5862 5861 5859 5858 5856 5855 5854 5852 5851 5849 5847 5846 5844 5842 5841 5839 5837 5835 5833 5831 5828 5825 5822 5819 5816 5813 5810 5807 5804 5800 5797 5794 5791
5866 5866 5866 5866 5866 5865 5865 5864 5864 5863 5862 5861 5860 5858 5857 5856 5854 5853 5852 5850 5849 5847 5846 5844 5842 5841 5839 5837 5836 5834 5832 5830 5828 5825 5822 5819 5816 5813 5810 5808 5805 5802 5799 5796
5860 5860 5861 5861 5861 5861 5861 5861 5860 5860 5859 5858 5857 5856 5855 5854 5853 5852 5851 5849 5848 5846 5845 5843 5842 5840 5839 5837 5836 5834 5832 5831 5829 5827 5824 5822 5819 5816 5814 5811 5808 5806 5803 5801
5853 5854 5855 5855 5856 5856 5856 5856 5856 5856 5855 5855 5854 5853 5853 5852 5851 5850 5849 5848 5846 5845 5844 5842 5841 5839 5838 5836 5835 5834 5832 5831 5829 5827 5825 5823 5821 5819 5816 5814 5812 5809 5807 5805
5845 5847 5848 5848 5849 5850 5850 5850 5850 5850 5850 5850 5850 5849 5849 5848 5847 5847 5846 5845 5844 5843 5842 5841 5839 5838 5836 5835 5834 5832 5831 5830 5828 5827 5825 5824 5822 5820 5818 5816 5814 5812 5810 5808
5837 5838 5839 5840 5841 5842 5843 5844 5844 5844 5844 5844 5844 5844 5844 5843 5843 5842 5842 5841 5840 5840 5839 5838 5837 5836 5835 5833 5832 5830 5829 5828 5827 5826 5824 5823 5822 5820 5819 5817 5815 5813 5811 5810
5827 5828 5830 5831 5833 5834 5835 5836 5836 5837 5837 5838 5838 5838 5838 5837 5837 5837 5837 5836 5836 5835 5835 5834 5833 5833 5832 5831 5829 5828 5827 5826 5825 5823 5822 5821 5820 5819 5818 5817 5815 5814 5812 5810
5815 5817 5819 5821 5822 5824 5825 5826 5827 5828 5829 5830 5830 5830 5831 5831 5831 5830 5830 5830 5830 5830 5829 5829 5829 5828 5827 5827 5826 5825 5824 5823 5821 5821 5820 5819 5818 5817 5816 5815 5814 5813 5811 5810
5801 5804 5806 5808 5810 5812 5814 5816 5817 5818 5819 5820 5821 5822 5822 5823 5823 5823 5823 5824 5824 5823 5823 5823 5823 5822 5822 5821 5821 5820 5819 5818 5817 5817 5816 5815 5814 5813 5813 5812 5811 5810 5809 5808
5787 5789 5791 5794 5796 5799 5801 5803 5805 5807 5808 5810 5811 5812 5813 5813 5814 5814 5815 5815 5816 5816 5815 5815 5815 5815 5815 5815 5814 5814 5813 5813 5812 5812 5811 5810 5809 5809 5808 5807 5807 5806 5805 5805
5771 5774 5776 5779 5782 5784 5787 5789 5792 5794 5796 5797 5799 5800 5801 5803 5804 5804 5805 5806 5806 5806 5806 5806 5807 5807 5807 5807 5807 5807 5806 5806 5806 5805 5805 5804 5804 5803 5802 5802 5801 5801 5800 5800
5754 5757 5760 5763 5766 5769 5771 5774 5776 5779 5781 5783 5785 5787 5788 5790 5791 5792 5793 5794 5795 5795 5796 5796 5796 5797 5797 5797 5798 5798 5798 5798 5798 5797 5797 5797 5797 5796 5796 5795 5795 5794 5794 5793
5735 5739 5742 5746 5749 5752 5754 5757 5760 5762 5765 5767 5769 5771 5773 5775 5777 5778 5780 5781 5782 5783 5783 5784 5784 5785 5786 5786 5787 5787 5788 5788 5788 5788 5788 5788 5788 5788 5788 5787 5787 5787 5786 5786